Saint Bonnet de Bellac- Haute Vienne - France
Donnes mto: lundi, 12/12/2011
Date Horaire Temp. E. Hum. E. P.atmo. Pluie Vent Direction Direction Ensoleilleme Solaire P. de rose Temp au vent Rafales
12/12/2011 00:00 9,8 C 94 % 1009,0 hPa 0,1 mm 14,0 km/h (3 Bft) S-SO 202 0 min 0 W/m 8,9 C 7,8 C 18,0 km/h (3 Bft)
12/12/2011 00:05 9,8 C 94 % 1008,9 hPa 0,3 mm 13,3 km/h (3 Bft) S-SO 202 0 min 0 W/m 8,9 C 7,9 C 21,6 km/h (4 Bft)
12/12/2011 00:10 9,8 C 94 % 1008,9 hPa 0,1 mm 11,5 km/h (2 Bft) SO 225 0 min 0 W/m 8,9 C 8,1 C 14,0 km/h (3 Bft)
12/12/2011 00:15 9,8 C 95 % 1008,9 hPa 0,0 mm 7,2 km/h (2 Bft) S-SO 202 0 min 0 W/m 9,0 C 8,9 C 11,9 km/h (2 Bft)
12/12/2011 00:20 9,8 C 95 % 1008,9 hPa 0,1 mm 11,2 km/h (2 Bft) S 180 0 min 0 W/m 9,0 C 8,2 C 15,8 km/h (3 Bft)
12/12/2011 00:25 9,8 C 95 % 1008,7 hPa 0,0 mm 12,2 km/h (2 Bft) O-SO 247 0 min 0 W/m 9,0 C 8,0 C 19,1 km/h (3 Bft)
12/12/2011 00:30 9,8 C 95 % 1008,7 hPa 0,1 mm 12,6 km/h (3 Bft) SO 225 0 min 0 W/m 9,0 C 8,0 C 19,4 km/h (3 Bft)
12/12/2011 00:35 9,8 C 94 % 1008,6 hPa 0,0 mm 11,9 km/h (2 Bft) S-SO 202 0 min 0 W/m 8,9 C 8,1 C 12,2 km/h (2 Bft)
12/12/2011 00:40 9,7 C 94 % 1008,5 hPa 0,1 mm 11,5 km/h (2 Bft) SO 225 0 min 0 W/m 8,8 C 8,0 C 15,8 km/h (3 Bft)
12/12/2011 00:45 9,7 C 94 % 1008,5 hPa 0,0 mm 9,7 km/h (2 Bft) S-SO 202 0 min 0 W/m 8,8 C 8,3 C 15,1 km/h (3 Bft)
12/12/2011 00:50 9,7 C 94 % 1008,4 hPa 0,1 mm 10,8 km/h (2 Bft) SO 225 0 min 0 W/m 8,8 C 8,1 C 16,2 km/h (3 Bft)
12/12/2011 00:55 9,7 C 94 % 1008,4 hPa 0,0 mm 13,3 km/h (3 Bft) S-SO 202 0 min 0 W/m 8,8 C 7,8 C 19,1 km/h (3 Bft)
12/12/2011 01:00 9,6 C 94 % 1008,2 hPa 0,0 mm 12,2 km/h (2 Bft) S 180 0 min 0 W/m 8,7 C 7,8 C 18,7 km/h (3 Bft)
12/12/2011 01:05 9,6 C 94 % 1008,3 hPa 0,0 mm 9,7 km/h (2 Bft) O-SO 247 0 min 0 W/m 8,7 C 8,2 C 10,1 km/h (2 Bft)
12/12/2011 01:10 9,7 C 94 % 1008,2 hPa 0,0 mm 7,9 km/h (2 Bft) SO 225 0 min 0 W/m 8,8 C 8,7 C 10,4 km/h (2 Bft)
12/12/2011 01:15 9,6 C 94 % 1008,1 hPa 0,0 mm 9,0 km/h (2 Bft) O-SO 247 0 min 0 W/m 8,7 C 8,3 C 14,4 km/h (3 Bft)
12/12/2011 01:20 9,7 C 94 % 1008,2 hPa 0,0 mm 7,6 km/h (2 Bft) O-SO 247 0 min 0 W/m 8,8 C 8,7 C 8,6 km/h (2 Bft)
12/12/2011 01:25 9,7 C 94 % 1008,2 hPa 0,1 mm 9,7 km/h (2 Bft) SO 225 0 min 0 W/m 8,8 C 8,3 C 12,6 km/h (3 Bft)
12/12/2011 01:30 9,6 C 94 % 1008,2 hPa 0,0 mm 12,2 km/h (2 Bft) SO 225 0 min 0 W/m 8,7 C 7,8 C 18,0 km/h (3 Bft)
12/12/2011 01:35 9,7 C 94 % 1008,2 hPa 0,4 mm 9,4 km/h (2 Bft) S-SO 202 0 min 0 W/m 8,8 C 8,4 C 12,6 km/h (3 Bft)
12/12/2011 01:40 9,6 C 94 % 1008,2 hPa 0,1 mm 9,4 km/h (2 Bft) O-SO 247 0 min 0 W/m 8,7 C 8,3 C 13,0 km/h (3 Bft)
12/12/2011 01:45 9,6 C 94 % 1008,0 hPa 0,0 mm 9,7 km/h (2 Bft) O-SO 247 0 min 0 W/m 8,7 C 8,2 C 9,7 km/h (2 Bft)
12/12/2011 01:50 9,7 C 94 % 1008,2 hPa 0,0 mm 9,4 km/h (2 Bft) S-SO 202 0 min 0 W/m 8,8 C 8,4 C 17,3 km/h (3 Bft)
12/12/2011 01:55 9,7 C 94 % 1008,2 hPa 0,0 mm 9,7 km/h (2 Bft) O-SO 247 0 min 0 W/m 8,8 C 8,3 C 13,0 km/h (3 Bft)
12/12/2011 02:02 9,7 C 94 % 1008,5 hPa 0,1 mm 9,0 km/h (2 Bft) SO 225 0 min 0 W/m 8,8 C 8,5 C 15,1 km/h (3 Bft)
12/12/2011 02:05 9,7 C 94 % 1008,5 hPa 0,4 mm 7,6 km/h (2 Bft) O-SO 247 0 min 0 W/m 8,8 C 8,7 C 11,9 km/h (2 Bft)
12/12/2011 02:10 9,7 C 94 % 1008,5 hPa 0,2 mm 7,2 km/h (2 Bft) SO 225 0 min 0 W/m 8,8 C 8,8 C 7,2 km/h (2 Bft)
12/12/2011 02:15 9,6 C 94 % 1008,2 hPa 0,2 mm 10,1 km/h (2 Bft) SO 225 0 min 0 W/m 8,7 C 8,1 C 11,9 km/h (2 Bft)
12/12/2011 02:20 9,6 C 94 % 1008,3 hPa 0,2 mm 7,6 km/h (2 Bft) O-SO 247 0 min 0 W/m 8,7 C 8,6 C 10,4 km/h (2 Bft)
12/12/2011 02:25 9,5 C 94 % 1008,3 hPa 0,2 mm 6,8 km/h (2 Bft) SO 225 0 min 0 W/m 8,6 C 8,7 C 6,8 km/h (2 Bft)
12/12/2011 02:30 9,5 C 94 % 1008,4 hPa 0,3 mm 6,8 km/h (2 Bft) SO 225 0 min 0 W/m 8,6 C 8,7 C 11,2 km/h (2 Bft)
12/12/2011 02:35 9,5 C 94 % 1008,4 hPa 0,7 mm 12,6 km/h (3 Bft) O-SO 247 0 min 0 W/m 8,6 C 7,6 C 17,6 km/h (3 Bft)
12/12/2011 02:40 9,4 C 94 % 1008,5 hPa 0,0 mm 6,1 km/h (2 Bft) O-SO 247 0 min 0 W/m 8,5 C 8,8 C 10,8 km/h (2 Bft)
12/12/2011 02:45 9,4 C 94 % 1008,5 hPa 0,0 mm 9,4 km/h (2 Bft) O-SO 247 0 min 0 W/m 8,5 C 8,0 C 12,6 km/h (3 Bft)
12/12/2011 02:50 9,3 C 94 % 1008,7 hPa 0,0 mm 7,9 km/h (2 Bft) O 270 0 min 0 W/m 8,4 C 8,2 C 23,0 km/h (4 Bft)
12/12/2011 02:55 9,3 C 94 % 1008,8 hPa 0,0 mm 6,8 km/h (2 Bft) O-SO 247 0 min 0 W/m 8,4 C 8,5 C 16,6 km/h (3 Bft)
12/12/2011 03:00 9,2 C 94 % 1008,8 hPa 0,0 mm 10,4 km/h (2 Bft) O-SO 247 0 min 0 W/m 8,3 C 7,6 C 14,4 km/h (3 Bft)
12/12/2011 03:05 9,1 C 94 % 1008,6 hPa 0,0 mm 5,8 km/h (2 Bft) SO 225 0 min 0 W/m 8,2 C 8,5 C 9,0 km/h (2 Bft)
12/12/2011 03:10 8,9 C 93 % 1008,7 hPa 0,0 mm 6,5 km/h (2 Bft) SO 225 0 min 0 W/m 7,8 C 8,1 C 10,1 km/h (2 Bft)
12/12/2011 03:15 8,8 C 93 % 1008,8 hPa 0,0 mm 1,4 km/h (1 Bft) O-SO 247 0 min 0 W/m 7,7 C 8,8 C 7,9 km/h (2 Bft)
12/12/2011 03:20 8,8 C 93 % 1008,7 hPa 0,0 mm 2,2 km/h (1 Bft) O 270 0 min 0 W/m 7,7 C 8,8 C 3,2 km/h (1 Bft)
12/12/2011 03:25 8,6 C 93 % 1008,8 hPa 0,0 mm 2,9 km/h (1 Bft) S-SO 202 0 min 0 W/m 7,5 C 8,6 C 6,1 km/h (2 Bft)
12/12/2011 03:30 8,6 C 93 % 1008,9 hPa 0,0 mm 4,7 km/h (1 Bft) O-SO 247 0 min 0 W/m 7,5 C 8,3 C 9,0 km/h (2 Bft)
12/12/2011 03:35 8,6 C 93 % 1009,0 hPa 0,0 mm 7,6 km/h (2 Bft) SO 225 0 min 0 W/m 7,5 C 7,5 C 8,6 km/h (2 Bft)
12/12/2011 03:40 8,6 C 94 % 1009,1 hPa 0,0 mm 2,9 km/h (1 Bft) SO 225 0 min 0 W/m 7,7 C 8,6 C 13,0 km/h (3 Bft)
12/12/2011 03:45 8,5 C 94 % 1009,1 hPa 0,0 mm 3,2 km/h (1 Bft) S-SO 202 0 min 0 W/m 7,6 C 8,5 C 7,6 km/h (2 Bft)
12/12/2011 03:50 8,5 C 94 % 1009,3 hPa 0,0 mm 5,0 km/h (1 Bft) O-SO 247 0 min 0 W/m 7,6 C 8,1 C 11,2 km/h (2 Bft)
12/12/2011 03:55 8,4 C 94 % 1009,4 hPa 0,0 mm 6,1 km/h (2 Bft) O-SO 247 0 min 0 W/m 7,5 C 7,6 C 14,8 km/h (3 Bft)
12/12/2011 04:00 8,4 C 94 % 1009,5 hPa 0,0 mm 0,7 km/h (0 Bft) SO 225 0 min 0 W/m 7,5 C 8,4 C 4,3 km/h (1 Bft)
12/12/2011 04:05 8,4 C 94 % 1009,5 hPa 0,0 mm 4,3 km/h (1 Bft) SO 225 0 min 0 W/m 7,5 C 8,4 C 10,1 km/h (2 Bft)
12/12/2011 04:10 8,4 C 94 % 1009,5 hPa 0,0 mm 2,9 km/h (1 Bft) O-SO 247 0 min 0 W/m 7,5 C 8,4 C 7,6 km/h (2 Bft)
12/12/2011 04:15 8,4 C 94 % 1009,5 hPa 0,0 mm 3,2 km/h (1 Bft) O 270 0 min 0 W/m 7,5 C 8,4 C 7,6 km/h (2 Bft)
12/12/2011 04:20 8,4 C 94 % 1009,5 hPa 0,0 mm 5,0 km/h (1 Bft) SO 225 0 min 0 W/m 7,5 C 7,9 C 10,8 km/h (2 Bft)
12/12/2011 04:25 8,3 C 93 % 1009,4 hPa 0,0 mm 2,5 km/h (1 Bft) O-SO 247 0 min 0 W/m 7,2 C 8,3 C 6,5 km/h (2 Bft)
12/12/2011 04:30 8,3 C 93 % 1009,5 hPa 0,0 mm 0,0 km/h (0 Bft) O-SO 247 0 min 0 W/m 7,2 C 8,3 C 0,0 km/h (0 Bft)
12/12/2011 04:35 8,3 C 93 % 1009,5 hPa 0,0 mm 2,5 km/h (1 Bft) O-SO 247 0 min 0 W/m 7,2 C 8,3 C 4,3 km/h (1 Bft)
12/12/2011 04:40 8,2 C 93 % 1009,6 hPa 0,0 mm 2,9 km/h (1 Bft) O 270 0 min 0 W/m 7,1 C 8,2 C 7,2 km/h (2 Bft)
12/12/2011 04:45 8,2 C 93 % 1009,7 hPa 0,0 mm 1,1 km/h (1 Bft) O-SO 247 0 min 0 W/m 7,1 C 8,2 C 1,1 km/h (1 Bft)
12/12/2011 04:50 8,2 C 94 % 1009,8 hPa 0,0 mm 4,3 km/h (1 Bft) SO 225 0 min 0 W/m 7,3 C 8,2 C 6,1 km/h (2 Bft)
12/12/2011 04:55 8,2 C 94 % 1009,8 hPa 0,0 mm 1,4 km/h (1 Bft) O-SO 247 0 min 0 W/m 7,3 C 8,2 C 4,0 km/h (1 Bft)
12/12/2011 05:00 8,2 C 94 % 1009,8 hPa 0,0 mm 6,1 km/h (2 Bft) SO 225 0 min 0 W/m 7,3 C 7,4 C 11,2 km/h (2 Bft)
12/12/2011 05:05 8,1 C 94 % 1009,8 hPa 0,0 mm 0,4 km/h (0 Bft) O-SO 247 0 min 0 W/m 7,2 C 8,1 C 3,6 km/h (1 Bft)
12/12/2011 05:10 8,1 C 94 % 1009,9 hPa 0,0 mm 0,4 km/h (0 Bft) O-SO 247 0 min 0 W/m 7,2 C 8,1 C 0,4 km/h (0 Bft)
12/12/2011 05:15 8,1 C 94 % 1009,9 hPa 0,0 mm 0,7 km/h (0 Bft) O 270 0 min 0 W/m 7,2 C 8,1 C 3,2 km/h (1 Bft)
12/12/2011 05:20 8,1 C 94 % 1010,0 hPa 0,0 mm 1,8 km/h (1 Bft) SO 225 0 min 0 W/m 7,2 C 8,1 C 6,1 km/h (2 Bft)
12/12/2011 05:25 8,1 C 94 % 1009,9 hPa 0,1 mm 5,8 km/h (2 Bft) O-SO 247 0 min 0 W/m 7,2 C 7,3 C 16,9 km/h (3 Bft)
12/12/2011 05:30 8,1 C 94 % 1010,0 hPa 0,0 mm 0,4 km/h (0 Bft) O-SO 247 0 min 0 W/m 7,2 C 8,1 C 2,9 km/h (1 Bft)
12/12/2011 05:35 8,1 C 94 % 1010,0 hPa 0,0 mm 2,9 km/h (1 Bft) O-SO 247 0 min 0 W/m 7,2 C 8,1 C 6,5 km/h (2 Bft)
12/12/2011 05:40 8,1 C 94 % 1010,3 hPa 0,0 mm 4,7 km/h (1 Bft) SO 225 0 min 0 W/m 7,2 C 7,7 C 11,2 km/h (2 Bft)
12/12/2011 05:45 8,1 C 94 % 1010,9 hPa 0,0 mm 15,8 km/h (3 Bft) NO 315 0 min 0 W/m 7,2 C 5,5 C 24,1 km/h (4 Bft)
12/12/2011 05:50 7,6 C 93 % 1011,2 hPa 0,4 mm 5,0 km/h (1 Bft) O-NO 292 0 min 0 W/m 6,5 C 7,0 C 10,8 km/h (2 Bft)
12/12/2011 05:55 6,9 C 92 % 1011,4 hPa 0,4 mm 16,6 km/h (3 Bft) N-NO 337 0 min 0 W/m 5,7 C 3,9 C 26,6 km/h (4 Bft)
12/12/2011 06:00 6,4 C 92 % 1011,5 hPa 0,6 mm 6,1 km/h (2 Bft) SO 225 0 min 0 W/m 5,2 C 5,3 C 15,1 km/h (3 Bft)
12/12/2011 06:05 6,1 C 92 % 1011,5 hPa 0,3 mm 10,1 km/h (2 Bft) N-NO 337 0 min 0 W/m 4,9 C 4,0 C 10,1 km/h (2 Bft)
12/12/2011 06:10 5,8 C 92 % 1011,5 hPa 0,1 mm 1,4 km/h (1 Bft) O 270 0 min 0 W/m 4,6 C 5,8 C 8,3 km/h (2 Bft)
12/12/2011 06:15 5,8 C 92 % 1011,6 hPa 0,1 mm 0,4 km/h (0 Bft) O-SO 247 0 min 0 W/m 4,6 C 5,8 C 3,6 km/h (1 Bft)
12/12/2011 06:20 5,7 C 92 % 1011,7 hPa 0,0 mm 0,0 km/h (0 Bft) O-SO 247 0 min 0 W/m 4,5 C 5,7 C 3,6 km/h (1 Bft)
12/12/2011 06:25 5,7 C 93 % 1011,6 hPa 0,0 mm 0,0 km/h (0 Bft) O-SO 247 0 min 0 W/m 4,7 C 5,7 C 0,0 km/h (0 Bft)
12/12/2011 06:30 5,8 C 93 % 1011,7 hPa 0,0 mm 0,4 km/h (0 Bft) O-SO 247 0 min 0 W/m 4,8 C 5,8 C 0,4 km/h (0 Bft)
12/12/2011 06:35 5,8 C 93 % 1011,8 hPa 0,0 mm 1,4 km/h (1 Bft) O-SO 247 0 min 0 W/m 4,8 C 5,8 C 1,4 km/h (1 Bft)
12/12/2011 06:40 5,8 C 93 % 1011,9 hPa 0,0 mm 0,0 km/h (0 Bft) O-SO 247 0 min 0 W/m 4,8 C 5,8 C 3,2 km/h (1 Bft)
12/12/2011 06:45 5,8 C 93 % 1011,9 hPa 0,0 mm 2,9 km/h (1 Bft) SO 225 0 min 0 W/m 4,8 C 5,8 C 3,6 km/h (1 Bft)
12/12/2011 06:50 5,8 C 94 % 1012,0 hPa 0,0 mm 1,4 km/h (1 Bft) O 270 0 min 0 W/m 4,9 C 5,8 C 1,4 km/h (1 Bft)
12/12/2011 06:55 5,8 C 94 % 1012,1 hPa 0,0 mm 0,0 km/h (0 Bft) O-SO 247 0 min 0 W/m 4,9 C 5,8 C 0,0 km/h (0 Bft)
12/12/2011 07:00 5,8 C 94 % 1012,3 hPa 0,0 mm 1,1 km/h (1 Bft) O-NO 292 0 min 0 W/m 4,9 C 5,8 C 3,2 km/h (1 Bft)
12/12/2011 07:05 5,8 C 94 % 1012,4 hPa 0,0 mm 0,7 km/h (0 Bft) O-SO 247 0 min 0 W/m 4,9 C 5,8 C 3,6 km/h (1 Bft)
12/12/2011 07:10 5,7 C 94 % 1012,6 hPa 0,0 mm 0,4 km/h (0 Bft) O-SO 247 0 min 0 W/m 4,8 C 5,7 C 4,3 km/h (1 Bft)
12/12/2011 07:15 5,6 C 94 % 1012,7 hPa 0,0 mm 0,7 km/h (0 Bft) O 270 0 min 0 W/m 4,7 C 5,6 C 0,7 km/h (0 Bft)
12/12/2011 07:20 5,5 C 94 % 1012,8 hPa 0,0 mm 2,9 km/h (1 Bft) O 270 0 min 0 W/m 4,6 C 5,5 C 5,8 km/h (2 Bft)
12/12/2011 07:25 5,5 C 94 % 1013,0 hPa 0,0 mm 2,9 km/h (1 Bft) O-NO 292 0 min 0 W/m 4,6 C 5,5 C 12,6 km/h (3 Bft)
12/12/2011 07:30 5,5 C 94 % 1012,9 hPa 0,1 mm 0,7 km/h (0 Bft) O 270 0 min 0 W/m 4,6 C 5,5 C 4,0 km/h (1 Bft)
12/12/2011 07:35 5,5 C 94 % 1013,2 hPa 0,0 mm 0,0 km/h (0 Bft) O-SO 247 0 min 0 W/m 4,6 C 5,5 C 3,2 km/h (1 Bft)
12/12/2011 07:40 5,4 C 94 % 1013,3 hPa 0,0 mm 1,1 km/h (1 Bft) SO 225 0 min 0 W/m 4,5 C 5,4 C 4,0 km/h (1 Bft)
12/12/2011 07:45 5,4 C 94 % 1013,4 hPa 0,0 mm 0,4 km/h (0 Bft) O-SO 247 0 min 0 W/m 4,5 C 5,4 C 2,9 km/h (1 Bft)
12/12/2011 07:50 5,4 C 94 % 1013,5 hPa 0,0 mm 0,0 km/h (0 Bft) O-SO 247 0 min 0 W/m 4,5 C 5,4 C 0,0 km/h (0 Bft)
12/12/2011 07:55 5,4 C 94 % 1013,6 hPa 0,0 mm 0,0 km/h (0 Bft) O 270 0 min 0 W/m 4,5 C 5,4 C 0,0 km/h (0 Bft)
12/12/2011 08:00 5,3 C 94 % 1013,6 hPa 0,0 mm 0,0 km/h (0 Bft) O-SO 247 0 min 0 W/m 4,4 C 5,3 C 0,0 km/h (0 Bft)
12/12/2011 08:05 5,1 C 94 % 1013,8 hPa 0,0 mm 0,0 km/h (0 Bft) O 270 0 min 0 W/m 4,2 C 5,1 C 0,0 km/h (0 Bft)
12/12/2011 08:10 4,9 C 94 % 1014,0 hPa 0,0 mm 1,1 km/h (1 Bft) O-SO 247 0 min 0 W/m 4,0 C 4,9 C 1,1 km/h (1 Bft)
12/12/2011 08:15 4,9 C 94 % 1014,0 hPa 0,0 mm 0,0 km/h (0 Bft) O-SO 247 0 min 0 W/m 4,0 C 4,9 C 0,0 km/h (0 Bft)
12/12/2011 08:20 4,8 C 94 % 1014,0 hPa 0,0 mm 0,0 km/h (0 Bft) O-SO 247 0 min 0 W/m 3,9 C 4,8 C 0,0 km/h (0 Bft)
12/12/2011 08:25 4,6 C 94 % 1014,2 hPa 0,0 mm 0,0 km/h (0 Bft) O-SO 247 0 min 0 W/m 3,7 C 4,6 C 0,0 km/h (0 Bft)
12/12/2011 08:30 4,6 C 94 % 1014,3 hPa 0,0 mm 1,1 km/h (1 Bft) O-SO 247 0 min 0 W/m 3,7 C 4,6 C 1,1 km/h (1 Bft)
12/12/2011 08:35 4,5 C 94 % 1014,3 hPa 0,0 mm 0,0 km/h (0 Bft) O-SO 247 0 min 0 W/m 3,6 C 4,5 C 0,0 km/h (0 Bft)
12/12/2011 08:40 4,4 C 94 % 1014,5 hPa 0,0 mm 0,4 km/h (0 Bft) O 270 0 min 0 W/m 3,5 C 4,4 C 0,4 km/h (0 Bft)
12/12/2011 08:45 4,4 C 94 % 1014,6 hPa 0,0 mm 0,7 km/h (0 Bft) SO 225 0 min 0 W/m 3,5 C 4,4 C 3,6 km/h (1 Bft)
12/12/2011 08:50 4,3 C 94 % 1014,7 hPa 0,0 mm 0,0 km/h (0 Bft) O-SO 247 0 min 0 W/m 3,4 C 4,3 C 3,6 km/h (1 Bft)
12/12/2011 08:55 4,4 C 94 % 1014,8 hPa 0,0 mm 3,2 km/h (1 Bft) SO 225 0 min 0 W/m 3,5 C 4,4 C 7,6 km/h (2 Bft)
12/12/2011 09:00 4,4 C 95 % 1014,9 hPa 0,0 mm 3,2 km/h (1 Bft) S 180 0 min 0 W/m 3,7 C 4,4 C 4,3 km/h (1 Bft)
12/12/2011 09:05 4,5 C 95 % 1015,0 hPa 0,0 mm 4,0 km/h (1 Bft) SO 225 0 min 0 W/m 3,8 C 4,5 C 8,6 km/h (2 Bft)
12/12/2011 09:10 4,7 C 95 % 1015,2 hPa 0,0 mm 5,8 km/h (2 Bft) SO 225 0 min 0 W/m 4,0 C 3,4 C 8,6 km/h (2 Bft)
12/12/2011 09:15 4,9 C 95 % 1015,3 hPa 0,0 mm 1,4 km/h (1 Bft) SO 225 0 min 0 W/m 4,2 C 4,9 C 4,0 km/h (1 Bft)
12/12/2011 09:20 5,2 C 95 % 1015,3 hPa 0,0 mm 2,5 km/h (1 Bft) O-SO 247 0 min 0 W/m 4,5 C 5,2 C 9,0 km/h (2 Bft)
12/12/2011 09:25 5,4 C 95 % 1015,4 hPa 0,0 mm 8,3 km/h (2 Bft) SO 225 0 min 0 W/m 4,7 C 3,5 C 13,3 km/h (3 Bft)
12/12/2011 09:30 5,5 C 95 % 1015,4 hPa 0,0 mm 7,2 km/h (2 Bft) S-SO 202 0 min 0 W/m 4,8 C 3,9 C 8,3 km/h (2 Bft)
12/12/2011 09:35 5,8 C 95 % 1015,6 hPa 0,0 mm 4,0 km/h (1 Bft) O-SO 247 0 min 0 W/m 5,1 C 5,8 C 4,3 km/h (1 Bft)
12/12/2011 09:40 5,9 C 95 % 1015,8 hPa 0,0 mm 2,5 km/h (1 Bft) SO 225 0 min 0 W/m 5,2 C 5,9 C 7,2 km/h (2 Bft)
12/12/2011 09:45 6,1 C 95 % 1016,0 hPa 0,0 mm 0,7 km/h (0 Bft) O-SO 247 0 min 0 W/m 5,4 C 6,1 C 3,2 km/h (1 Bft)
12/12/2011 09:50 6,4 C 95 % 1016,0 hPa 0,0 mm 2,5 km/h (1 Bft) S-SO 202 0 min 0 W/m 5,7 C 6,4 C 7,2 km/h (2 Bft)
12/12/2011 09:55 6,5 C 94 % 1016,2 hPa 0,0 mm 5,4 km/h (2 Bft) S-SO 202 0 min 0 W/m 5,6 C 5,6 C 10,8 km/h (2 Bft)
12/12/2011 10:00 6,6 C 93 % 1016,4 hPa 0,0 mm 2,9 km/h (1 Bft) SO 225 0 min 0 W/m 5,6 C 6,6 C 7,2 km/h (2 Bft)
12/12/2011 10:05 6,8 C 92 % 1016,5 hPa 0,0 mm 0,7 km/h (0 Bft) O-SO 247 0 min 0 W/m 5,6 C 6,8 C 3,6 km/h (1 Bft)
12/12/2011 10:10 7,0 C 92 % 1016,6 hPa 0,0 mm 5,4 km/h (2 Bft) O 270 0 min 0 W/m 5,8 C 6,2 C 15,8 km/h (3 Bft)
12/12/2011 10:15 7,2 C 91 % 1016,7 hPa 0,0 mm 0,0 km/h (0 Bft) O-SO 247 0 min 0 W/m 5,8 C 7,2 C 0,0 km/h (0 Bft)
12/12/2011 10:20 7,4 C 91 % 1016,8 hPa 0,0 mm 0,0 km/h (0 Bft) S-SO 202 0 min 0 W/m 6,0 C 7,4 C 0,0 km/h (0 Bft)
12/12/2011 10:25 7,6 C 90 % 1016,8 hPa 0,0 mm 3,6 km/h (1 Bft) O-SO 247 0 min 0 W/m 6,1 C 7,6 C 4,0 km/h (1 Bft)
12/12/2011 10:30 7,8 C 89 % 1016,9 hPa 0,0 mm 3,2 km/h (1 Bft) S-SO 202 0 min 0 W/m 6,1 C 7,8 C 6,8 km/h (2 Bft)
12/12/2011 10:35 7,9 C 89 % 1017,1 hPa 0,0 mm 0,7 km/h (0 Bft) SO 225 0 min 0 W/m 6,2 C 7,9 C 4,0 km/h (1 Bft)
12/12/2011 10:40 8,1 C 88 % 1017,2 hPa 0,0 mm 2,2 km/h (1 Bft) SO 225 0 min 0 W/m 6,2 C 8,1 C 7,9 km/h (2 Bft)
12/12/2011 10:45 8,2 C 86 % 1017,3 hPa 0,0 mm 2,5 km/h (1 Bft) S-SO 202 0 min 0 W/m 6,0 C 8,2 C 3,6 km/h (1 Bft)
12/12/2011 10:50 8,4 C 86 % 1017,4 hPa 0,0 mm 2,9 km/h (1 Bft) SO 225 0 min 0 W/m 6,2 C 8,4 C 6,1 km/h (2 Bft)
12/12/2011 10:55 8,6 C 85 % 1017,6 hPa 0,0 mm 1,4 km/h (1 Bft) O-SO 247 0 min 0 W/m 6,2 C 8,6 C 6,1 km/h (2 Bft)
12/12/2011 11:00 8,8 C 85 % 1017,7 hPa 0,0 mm 3,2 km/h (1 Bft) O-SO 247 0 min 0 W/m 6,4 C 8,8 C 3,2 km/h (1 Bft)
12/12/2011 11:05 8,9 C 85 % 1017,7 hPa 0,0 mm 0,7 km/h (0 Bft) SO 225 0 min 0 W/m 6,5 C 8,9 C 0,7 km/h (0 Bft)
12/12/2011 11:10 9,1 C 83 % 1017,7 hPa 0,0 mm 4,3 km/h (1 Bft) O-SO 247 0 min 0 W/m 6,4 C 9,1 C 8,3 km/h (2 Bft)
12/12/2011 11:15 9,3 C 83 % 1017,7 hPa 0,0 mm 1,1 km/h (1 Bft) SO 225 0 min 0 W/m 6,6 C 9,3 C 4,0 km/h (1 Bft)
12/12/2011 11:20 9,4 C 82 % 1017,8 hPa 0,0 mm 0,4 km/h (0 Bft) SO 225 0 min 0 W/m 6,5 C 9,4 C 0,4 km/h (0 Bft)
12/12/2011 11:25 9,6 C 81 % 1017,9 hPa 0,0 mm 1,1 km/h (1 Bft) SO 225 0 min 0 W/m 6,5 C 9,6 C 3,6 km/h (1 Bft)
12/12/2011 11:30 9,9 C 80 % 1018,0 hPa 0,0 mm 2,2 km/h (1 Bft) O-SO 247 0 min 0 W/m 6,6 C 9,9 C 2,2 km/h (1 Bft)
12/12/2011 11:35 9,9 C 79 % 1018,1 hPa 0,0 mm 4,3 km/h (1 Bft) S-SO 202 0 min 0 W/m 6,4 C 9,9 C 6,5 km/h (2 Bft)
12/12/2011 11:40 10,1 C 78 % 1018,1 hPa 0,0 mm 3,2 km/h (1 Bft) S-SO 202 0 min 0 W/m 6,4 C 10,1 C 8,3 km/h (2 Bft)
12/12/2011 11:45 10,1 C 77 % 1018,2 hPa 0,0 mm 5,8 km/h (2 Bft) SO 225 0 min 0 W/m 6,3 C 10,1 C 7,9 km/h (2 Bft)
12/12/2011 11:50 10,1 C 76 % 1018,2 hPa 0,0 mm 4,3 km/h (1 Bft) SO 225 0 min 0 W/m 6,1 C 10,1 C 9,0 km/h (2 Bft)
12/12/2011 11:55 10,1 C 78 % 1018,2 hPa 0,0 mm 0,0 km/h (0 Bft) SO 225 0 min 0 W/m 6,4 C 10,1 C 3,6 km/h (1 Bft)
12/12/2011 12:00 10,3 C 78 % 1018,2 hPa 0,0 mm 3,2 km/h (1 Bft) SO 225 0 min 0 W/m 6,6 C 10,3 C 9,4 km/h (2 Bft)
12/12/2011 12:05 10,4 C 76 % 1018,2 hPa 0,0 mm 3,6 km/h (1 Bft) SO 225 0 min 0 W/m 6,4 C 10,4 C 4,0 km/h (1 Bft)
12/12/2011 12:10 10,4 C 77 % 1018,4 hPa 0,0 mm 3,2 km/h (1 Bft) S-SO 202 0 min 0 W/m 6,5 C 10,4 C 6,5 km/h (2 Bft)
12/12/2011 12:15 10,5 C 78 % 1018,4 hPa 0,0 mm 0,7 km/h (0 Bft) SO 225 0 min 0 W/m 6,8 C 10,5 C 0,7 km/h (0 Bft)
12/12/2011 12:20 10,8 C 77 % 1018,4 hPa 0,0 mm 4,0 km/h (1 Bft) O-SO 247 0 min 0 W/m 6,9 C 10,8 C 10,8 km/h (2 Bft)
12/12/2011 12:25 10,8 C 76 % 1018,4 hPa 0,0 mm 3,2 km/h (1 Bft) O 270 0 min 0 W/m 6,7 C 10,8 C 8,6 km/h (2 Bft)
12/12/2011 12:30 10,8 C 74 % 1018,3 hPa 0,0 mm 5,4 km/h (2 Bft) SO 225 0 min 0 W/m 6,4 C 10,8 C 5,4 km/h (2 Bft)
12/12/2011 12:35 10,8 C 73 % 1018,3 hPa 0,0 mm 4,3 km/h (1 Bft) S-SO 202 0 min 0 W/m 6,2 C 10,8 C 10,8 km/h (2 Bft)
12/12/2011 12:40 10,6 C 72 % 1018,3 hPa 0,0 mm 4,7 km/h (1 Bft) SO 225 0 min 0 W/m 5,8 C 10,6 C 6,1 km/h (2 Bft)
12/12/2011 12:45 10,6 C 74 % 1018,3 hPa 0,0 mm 1,4 km/h (1 Bft) O 270 0 min 0 W/m 6,2 C 10,6 C 4,0 km/h (1 Bft)
12/12/2011 12:50 10,7 C 74 % 1018,2 hPa 0,0 mm 4,3 km/h (1 Bft) S-SO 202 0 min 0 W/m 6,3 C 10,7 C 8,3 km/h (2 Bft)
12/12/2011 12:55 10,7 C 73 % 1018,2 hPa 0,0 mm 4,7 km/h (1 Bft) S-SO 202 0 min 0 W/m 6,1 C 10,7 C 8,3 km/h (2 Bft)
12/12/2011 13:00 10,8 C 75 % 1018,2 hPa 0,0 mm 0,4 km/h (0 Bft) O-SO 247 0 min 0 W/m 6,5 C 10,8 C 2,9 km/h (1 Bft)
12/12/2011 13:05 10,8 C 73 % 1018,1 hPa 0,0 mm 2,2 km/h (1 Bft) O-SO 247 0 min 0 W/m 6,2 C 10,8 C 4,0 km/h (1 Bft)
12/12/2011 13:10 10,8 C 73 % 1018,2 hPa 0,0 mm 2,9 km/h (1 Bft) O-SO 247 0 min 0 W/m 6,2 C 10,8 C 6,5 km/h (2 Bft)
12/12/2011 13:15 10,9 C 72 % 1018,3 hPa 0,0 mm 3,2 km/h (1 Bft) SO 225 0 min 0 W/m 6,1 C 10,9 C 4,3 km/h (1 Bft)
12/12/2011 13:20 10,8 C 70 % 1018,2 hPa 0,0 mm 2,5 km/h (1 Bft) O-SO 247 0 min 0 W/m 5,6 C 10,8 C 5,0 km/h (1 Bft)
12/12/2011 13:25 10,8 C 71 % 1018,1 hPa 0,0 mm 2,5 km/h (1 Bft) SO 225 0 min 0 W/m 5,8 C 10,8 C 3,2 km/h (1 Bft)
12/12/2011 13:30 10,8 C 70 % 1018,1 hPa 0,0 mm 5,4 km/h (2 Bft) SO 225 0 min 0 W/m 5,6 C 10,8 C 8,3 km/h (2 Bft)
12/12/2011 13:35 10,8 C 72 % 1018,2 hPa 0,0 mm 3,6 km/h (1 Bft) S-SO 202 0 min 0 W/m 6,0 C 10,8 C 3,6 km/h (1 Bft)
12/12/2011 13:40 10,8 C 72 % 1018,4 hPa 0,0 mm 2,5 km/h (1 Bft) O-SO 247 0 min 0 W/m 6,0 C 10,8 C 4,0 km/h (1 Bft)
12/12/2011 13:45 10,6 C 69 % 1018,5 hPa 0,0 mm 4,3 km/h (1 Bft) SO 225 0 min 0 W/m 5,2 C 10,6 C 5,0 km/h (1 Bft)
12/12/2011 13:50 10,6 C 71 % 1018,7 hPa 0,0 mm 5,0 km/h (1 Bft) SO 225 0 min 0 W/m 5,6 C 10,6 C 8,6 km/h (2 Bft)
12/12/2011 13:55 10,6 C 69 % 1018,7 hPa 0,0 mm 4,3 km/h (1 Bft) SO 225 0 min 0 W/m 5,2 C 10,6 C 9,7 km/h (2 Bft)
12/12/2011 14:00 10,6 C 69 % 1018,6 hPa 0,0 mm 2,9 km/h (1 Bft) S-SO 202 0 min 0 W/m 5,2 C 10,6 C 7,2 km/h (2 Bft)
12/12/2011 14:05 10,5 C 69 % 1018,5 hPa 0,0 mm 3,6 km/h (1 Bft) S-SO 202 0 min 0 W/m 5,1 C 10,5 C 10,8 km/h (2 Bft)
12/12/2011 14:10 10,3 C 68 % 1018,4 hPa 0,0 mm 4,7 km/h (1 Bft) SO 225 0 min 0 W/m 4,7 C 10,3 C 7,9 km/h (2 Bft)
12/12/2011 14:15 10,3 C 70 % 1018,3 hPa 0,0 mm 2,9 km/h (1 Bft) S-SO 202 0 min 0 W/m 5,1 C 10,3 C 6,1 km/h (2 Bft)
12/12/2011 14:20 10,3 C 70 % 1018,3 hPa 0,0 mm 4,7 km/h (1 Bft) SO 225 0 min 0 W/m 5,1 C 10,3 C 8,3 km/h (2 Bft)
12/12/2011 14:25 10,2 C 70 % 1018,0 hPa 0,0 mm 4,0 km/h (1 Bft) SO 225 0 min 0 W/m 5,0 C 10,2 C 4,7 km/h (1 Bft)
12/12/2011 14:30 10,1 C 70 % 1017,9 hPa 0,0 mm 6,5 km/h (2 Bft) S-SO 202 0 min 0 W/m 4,9 C 10,1 C 10,8 km/h (2 Bft)
12/12/2011 14:35 10,1 C 70 % 1017,7 hPa 0,0 mm 6,1 km/h (2 Bft) SO 225 0 min 0 W/m 4,9 C 10,1 C 6,5 km/h (2 Bft)
12/12/2011 14:40 9,9 C 70 % 1017,6 hPa 0,0 mm 10,1 km/h (2 Bft) SO 225 0 min 0 W/m 4,7 C 8,5 C 13,0 km/h (3 Bft)
12/12/2011 14:45 9,8 C 72 % 1017,7 hPa 0,0 mm 0,4 km/h (0 Bft) O-SO 247 0 min 0 W/m 5,0 C 9,8 C 2,9 km/h (1 Bft)
12/12/2011 14:50 9,8 C 72 % 1017,6 hPa 0,0 mm 11,5 km/h (2 Bft) SO 225 0 min 0 W/m 5,0 C 8,1 C 15,1 km/h (3 Bft)
12/12/2011 14:55 9,8 C 72 % 1017,6 hPa 0,0 mm 6,5 km/h (2 Bft) SO 225 0 min 0 W/m 5,0 C 9,1 C 10,8 km/h (2 Bft)
12/12/2011 15:00 9,8 C 73 % 1017,5 hPa 0,0 mm 2,5 km/h (1 Bft) SO 225 0 min 0 W/m 5,2 C 9,8 C 9,0 km/h (2 Bft)
12/12/2011 15:05 9,8 C 72 % 1017,3 hPa 0,0 mm 4,7 km/h (1 Bft) SO 225 0 min 0 W/m 5,0 C 9,6 C 6,8 km/h (2 Bft)
12/12/2011 15:10 9,7 C 72 % 1017,4 hPa 0,0 mm 0,4 km/h (0 Bft) SO 225 0 min 0 W/m 4,9 C 9,7 C 3,2 km/h (1 Bft)
12/12/2011 15:15 9,8 C 72 % 1017,2 hPa 0,0 mm 2,9 km/h (1 Bft) S-SO 202 0 min 0 W/m 5,0 C 9,8 C 4,0 km/h (1 Bft)
12/12/2011 15:20 9,8 C 72 % 1017,1 hPa 0,0 mm 4,7 km/h (1 Bft) SO 225 0 min 0 W/m 5,0 C 9,6 C 11,2 km/h (2 Bft)
12/12/2011 15:25 9,7 C 71 % 1017,0 hPa 0,0 mm 9,0 km/h (2 Bft) S-SO 202 0 min 0 W/m 4,7 C 8,5 C 13,0 km/h (3 Bft)
12/12/2011 15:30 9,6 C 71 % 1016,9 hPa 0,0 mm 3,2 km/h (1 Bft) SO 225 0 min 0 W/m 4,6 C 9,6 C 6,1 km/h (2 Bft)
12/12/2011 15:35 9,5 C 71 % 1017,0 hPa 0,0 mm 7,6 km/h (2 Bft) SO 225 0 min 0 W/m 4,5 C 8,5 C 8,6 km/h (2 Bft)
12/12/2011 15:40 9,3 C 71 % 1017,0 hPa 0,0 mm 4,7 km/h (1 Bft) SO 225 0 min 0 W/m 4,3 C 9,1 C 8,3 km/h (2 Bft)
12/12/2011 15:45 9,2 C 72 % 1017,0 hPa 0,0 mm 7,2 km/h (2 Bft) SO 225 0 min 0 W/m 4,4 C 8,2 C 9,7 km/h (2 Bft)
12/12/2011 15:50 9,1 C 74 % 1016,9 hPa 0,0 mm 5,0 km/h (1 Bft) SO 225 0 min 0 W/m 4,7 C 8,7 C 6,8 km/h (2 Bft)
12/12/2011 15:55 8,9 C 74 % 1016,8 hPa 0,0 mm 4,7 km/h (1 Bft) S-SO 202 0 min 0 W/m 4,5 C 8,6 C 8,3 km/h (2 Bft)
12/12/2011 16:00 8,8 C 75 % 1016,7 hPa 0,0 mm 4,3 km/h (1 Bft) S-SE 157 0 min 0 W/m 4,6 C 8,8 C 7,2 km/h (2 Bft)
12/12/2011 16:05 8,8 C 75 % 1016,7 hPa 0,0 mm 4,7 km/h (1 Bft) S-SO 202 0 min 0 W/m 4,6 C 8,5 C 4,7 km/h (1 Bft)
12/12/2011 16:10 8,6 C 76 % 1016,5 hPa 0,0 mm 6,1 km/h (2 Bft) S-SO 202 0 min 0 W/m 4,6 C 7,8 C 6,1 km/h (2 Bft)
12/12/2011 16:15 8,4 C 76 % 1016,4 hPa 0,0 mm 5,4 km/h (2 Bft) SO 225 0 min 0 W/m 4,4 C 7,8 C 5,8 km/h (2 Bft)
12/12/2011 16:20 8,3 C 76 % 1016,2 hPa 0,0 mm 5,8 km/h (2 Bft) S-SO 202 0 min 0 W/m 4,3 C 7,6 C 10,1 km/h (2 Bft)
12/12/2011 16:25 8,3 C 77 % 1016,3 hPa 0,0 mm 6,8 km/h (2 Bft) SO 225 0 min 0 W/m 4,5 C 7,3 C 9,0 km/h (2 Bft)
12/12/2011 16:30 8,3 C 77 % 1016,3 hPa 0,0 mm 4,0 km/h (1 Bft) SO 225 0 min 0 W/m 4,5 C 8,3 C 4,3 km/h (1 Bft)
12/12/2011 16:35 8,2 C 77 % 1016,4 hPa 0,0 mm 5,4 km/h (2 Bft) S-SO 202 0 min 0 W/m 4,4 C 7,6 C 6,5 km/h (2 Bft)
12/12/2011 16:40 8,2 C 76 % 1016,6 hPa 0,0 mm 7,9 km/h (2 Bft) SO 225 0 min 0 W/m 4,2 C 6,9 C 11,2 km/h (2 Bft)
12/12/2011 16:45 8,1 C 77 % 1016,9 hPa 0,0 mm 4,0 km/h (1 Bft) SO 225 0 min 0 W/m 4,3 C 8,1 C 4,0 km/h (1 Bft)
12/12/2011 16:50 8,0 C 77 % 1017,1 hPa 0,0 mm 3,6 km/h (1 Bft) SO 225 0 min 0 W/m 4,2 C 8,0 C 4,3 km/h (1 Bft)
12/12/2011 16:55 7,9 C 77 % 1017,4 hPa 0,0 mm 2,5 km/h (1 Bft) SO 225 0 min 0 W/m 4,1 C 7,9 C 3,2 km/h (1 Bft)
12/12/2011 17:00 7,8 C 78 % 1017,6 hPa 0,0 mm 3,2 km/h (1 Bft) S-SO 202 0 min 0 W/m 4,2 C 7,8 C 4,0 km/h (1 Bft)
12/12/2011 17:05 7,5 C 79 % 1017,9 hPa 0,0 mm 6,8 km/h (2 Bft) SO 225 0 min 0 W/m 4,1 C 6,4 C 6,8 km/h (2 Bft)
12/12/2011 17:10 7,4 C 79 % 1018,0 hPa 0,0 mm 3,6 km/h (1 Bft) SO 225 0 min 0 W/m 4,0 C 7,4 C 7,2 km/h (2 Bft)
12/12/2011 17:15 7,3 C 80 % 1018,1 hPa 0,0 mm 4,0 km/h (1 Bft) S-SO 202 0 min 0 W/m 4,1 C 7,3 C 6,1 km/h (2 Bft)
12/12/2011 17:20 7,2 C 80 % 1018,1 hPa 0,0 mm 4,3 km/h (1 Bft) S-SO 202 0 min 0 W/m 4,0 C 7,2 C 7,6 km/h (2 Bft)
12/12/2011 17:25 7,1 C 81 % 1018,1 hPa 0,0 mm 3,2 km/h (1 Bft) SO 225 0 min 0 W/m 4,1 C 7,1 C 7,9 km/h (2 Bft)
12/12/2011 17:30 7,1 C 81 % 1018,0 hPa 0,0 mm 3,6 km/h (1 Bft) SO 225 0 min 0 W/m 4,1 C 7,1 C 4,0 km/h (1 Bft)
12/12/2011 17:35 6,9 C 82 % 1017,9 hPa 0,0 mm 5,0 km/h (1 Bft) S-SO 202 0 min 0 W/m 4,0 C 6,2 C 5,0 km/h (1 Bft)
12/12/2011 17:40 6,9 C 82 % 1017,8 hPa 0,0 mm 4,7 km/h (1 Bft) S-SO 202 0 min 0 W/m 4,0 C 6,3 C 4,7 km/h (1 Bft)
12/12/2011 17:45 6,8 C 82 % 1017,7 hPa 0,0 mm 7,6 km/h (2 Bft) S-SO 202 0 min 0 W/m 3,9 C 5,3 C 9,0 km/h (2 Bft)
12/12/2011 17:50 6,8 C 82 % 1017,7 hPa 0,0 mm 4,3 km/h (1 Bft) S-SO 202 0 min 0 W/m 3,9 C 6,8 C 8,6 km/h (2 Bft)
12/12/2011 17:55 6,6 C 82 % 1017,6 hPa 0,0 mm 4,0 km/h (1 Bft) S 180 0 min 0 W/m 3,8 C 6,6 C 9,7 km/h (2 Bft)
12/12/2011 18:00 6,5 C 83 % 1017,5 hPa 0,0 mm 2,5 km/h (1 Bft) S-SO 202 0 min 0 W/m 3,8 C 6,5 C 3,6 km/h (1 Bft)
12/12/2011 18:05 6,4 C 83 % 1017,4 hPa 0,0 mm 3,2 km/h (1 Bft) S-SO 202 0 min 0 W/m 3,7 C 6,4 C 4,3 km/h (1 Bft)
12/12/2011 18:10 6,3 C 84 % 1017,3 hPa 0,0 mm 4,3 km/h (1 Bft) S-SO 202 0 min 0 W/m 3,8 C 6,3 C 4,3 km/h (1 Bft)
12/12/2011 18:15 6,3 C 85 % 1017,3 hPa 0,0 mm 7,2 km/h (2 Bft) S-SO 202 0 min 0 W/m 4,0 C 4,9 C 14,8 km/h (3 Bft)
12/12/2011 18:20 6,3 C 85 % 1017,2 hPa 0,0 mm 5,4 km/h (2 Bft) S-SO 202 0 min 0 W/m 4,0 C 5,4 C 8,3 km/h (2 Bft)
12/12/2011 18:25 6,3 C 85 % 1017,3 hPa 0,0 mm 6,5 km/h (2 Bft) SO 225 0 min 0 W/m 4,0 C 5,1 C 9,4 km/h (2 Bft)
12/12/2011 18:30 6,3 C 85 % 1017,3 hPa 0,0 mm 7,6 km/h (2 Bft) S-SO 202 0 min 0 W/m 4,0 C 4,8 C 7,6 km/h (2 Bft)
12/12/2011 18:35 6,3 C 85 % 1017,2 hPa 0,0 mm 7,9 km/h (2 Bft) S-SO 202 0 min 0 W/m 4,0 C 4,7 C 9,4 km/h (2 Bft)
12/12/2011 18:40 6,4 C 85 % 1017,2 hPa 0,0 mm 8,3 km/h (2 Bft) SO 225 0 min 0 W/m 4,1 C 4,7 C 11,9 km/h (2 Bft)
12/12/2011 18:45 6,4 C 85 % 1017,0 hPa 0,0 mm 9,7 km/h (2 Bft) S-SO 202 0 min 0 W/m 4,1 C 4,4 C 12,2 km/h (2 Bft)
12/12/2011 18:50 6,4 C 85 % 1016,9 hPa 0,0 mm 4,7 km/h (1 Bft) S-SO 202 0 min 0 W/m 4,1 C 5,8 C 8,6 km/h (2 Bft)
12/12/2011 18:55 6,3 C 85 % 1016,9 hPa 0,0 mm 4,7 km/h (1 Bft) S 180 0 min 0 W/m 4,0 C 5,7 C 4,7 km/h (1 Bft)
12/12/2011 19:00 6,3 C 85 % 1017,1 hPa 0,0 mm 7,2 km/h (2 Bft) O-SO 247 0 min 0 W/m 4,0 C 4,9 C 11,5 km/h (2 Bft)
12/12/2011 19:05 6,3 C 85 % 1017,1 hPa 0,0 mm 4,3 km/h (1 Bft) O-SO 247 0 min 0 W/m 4,0 C 6,3 C 7,9 km/h (2 Bft)
12/12/2011 19:10 6,3 C 85 % 1017,1 hPa 0,0 mm 5,4 km/h (2 Bft) S-SE 157 0 min 0 W/m 4,0 C 5,4 C 5,8 km/h (2 Bft)
12/12/2011 19:15 6,2 C 85 % 1017,1 hPa 0,0 mm 7,2 km/h (2 Bft) S-SO 202 0 min 0 W/m 3,9 C 4,8 C 13,0 km/h (3 Bft)
12/12/2011 19:20 6,3 C 86 % 1017,0 hPa 0,0 mm 11,2 km/h (2 Bft) S-SE 157 0 min 0 W/m 4,1 C 4,0 C 12,6 km/h (3 Bft)
12/12/2011 19:25 6,3 C 86 % 1016,9 hPa 0,0 mm 6,8 km/h (2 Bft) S-SO 202 0 min 0 W/m 4,1 C 5,0 C 14,0 km/h (3 Bft)
12/12/2011 19:30 6,3 C 86 % 1016,9 hPa 0,0 mm 8,3 km/h (2 Bft) S 180 0 min 0 W/m 4,1 C 4,6 C 10,8 km/h (2 Bft)
12/12/2011 19:35 6,4 C 86 % 1016,8 hPa 0,0 mm 7,2 km/h (2 Bft) S-SO 202 0 min 0 W/m 4,2 C 5,0 C 7,9 km/h (2 Bft)
12/12/2011 19:40 6,5 C 86 % 1016,8 hPa 0,0 mm 8,3 km/h (2 Bft) S-SO 202 0 min 0 W/m 4,3 C 4,8 C 12,6 km/h (3 Bft)
12/12/2011 19:45 6,6 C 86 % 1016,6 hPa 0,0 mm 9,4 km/h (2 Bft) S 180 0 min 0 W/m 4,4 C 4,7 C 12,2 km/h (2 Bft)
12/12/2011 19:50 6,6 C 86 % 1016,6 hPa 0,0 mm 8,3 km/h (2 Bft) S-SE 157 0 min 0 W/m 4,4 C 4,9 C 11,5 km/h (2 Bft)
12/12/2011 19:55 6,6 C 86 % 1016,5 hPa 0,0 mm 9,4 km/h (2 Bft) S-SO 202 0 min 0 W/m 4,4 C 4,7 C 9,4 km/h (2 Bft)
12/12/2011 20:00 6,6 C 86 % 1016,5 hPa 0,0 mm 10,1 km/h (2 Bft) S-SO 202 0 min 0 W/m 4,4 C 4,5 C 17,6 km/h (3 Bft)
12/12/2011 20:05 6,6 C 86 % 1016,6 hPa 0,0 mm 7,9 km/h (2 Bft) S-SO 202 0 min 0 W/m 4,4 C 5,0 C 9,4 km/h (2 Bft)
12/12/2011 20:10 6,6 C 86 % 1016,5 hPa 0,0 mm 9,0 km/h (2 Bft) S-SO 202 0 min 0 W/m 4,4 C 4,8 C 12,2 km/h (2 Bft)
12/12/2011 20:15 6,6 C 85 % 1016,4 hPa 0,0 mm 10,8 km/h (2 Bft) S 180 0 min 0 W/m 4,3 C 4,4 C 11,5 km/h (2 Bft)
12/12/2011 20:20 6,6 C 85 % 1016,3 hPa 0,0 mm 8,6 km/h (2 Bft) S-SO 202 0 min 0 W/m 4,3 C 4,9 C 13,7 km/h (3 Bft)
12/12/2011 20:25 6,6 C 85 % 1016,2 hPa 0,0 mm 8,3 km/h (2 Bft) S-SO 202 0 min 0 W/m 4,3 C 4,9 C 16,9 km/h (3 Bft)
12/12/2011 20:30 6,6 C 85 % 1016,2 hPa 0,0 mm 9,0 km/h (2 Bft) S-SO 202 0 min 0 W/m 4,3 C 4,8 C 12,6 km/h (3 Bft)
12/12/2011 20:35 6,6 C 85 % 1016,0 hPa 0,0 mm 10,1 km/h (2 Bft) S-SO 202 0 min 0 W/m 4,3 C 4,5 C 10,1 km/h (2 Bft)
12/12/2011 20:40 6,6 C 85 % 1016,0 hPa 0,0 mm 12,2 km/h (2 Bft) S 180 0 min 0 W/m 4,3 C 4,2 C 18,7 km/h (3 Bft)
12/12/2011 20:45 6,6 C 85 % 1015,9 hPa 0,0 mm 9,4 km/h (2 Bft) O-SO 247 0 min 0 W/m 4,3 C 4,7 C 17,6 km/h (3 Bft)
12/12/2011 20:50 6,7 C 85 % 1015,8 hPa 0,0 mm 10,4 km/h (2 Bft) SO 225 0 min 0 W/m 4,4 C 4,6 C 20,5 km/h (4 Bft)
12/12/2011 20:55 6,7 C 85 % 1015,8 hPa 0,0 mm 9,7 km/h (2 Bft) SO 225 0 min 0 W/m 4,4 C 4,8 C 13,3 km/h (3 Bft)
12/12/2011 21:00 6,7 C 85 % 1015,8 hPa 0,0 mm 13,3 km/h (3 Bft) SO 225 0 min 0 W/m 4,4 C 4,1 C 22,0 km/h (4 Bft)
12/12/2011 21:05 6,8 C 85 % 1015,7 hPa 0,0 mm 14,4 km/h (3 Bft) S 180 0 min 0 W/m 4,5 C 4,1 C 17,3 km/h (3 Bft)
12/12/2011 21:10 6,8 C 85 % 1015,7 hPa 0,0 mm 7,6 km/h (2 Bft) S-SO 202 0 min 0 W/m 4,5 C 5,3 C 7,6 km/h (2 Bft)
12/12/2011 21:15 6,8 C 85 % 1015,6 hPa 0,0 mm 9,4 km/h (2 Bft) S-SO 202 0 min 0 W/m 4,5 C 4,9 C 14,0 km/h (3 Bft)
12/12/2011 21:20 6,8 C 85 % 1015,5 hPa 0,0 mm 11,2 km/h (2 Bft) S-SO 202 0 min 0 W/m 4,5 C 4,6 C 18,7 km/h (3 Bft)
12/12/2011 21:25 6,8 C 85 % 1015,7 hPa 0,0 mm 11,5 km/h (2 Bft) S-SO 202 0 min 0 W/m 4,5 C 4,5 C 16,9 km/h (3 Bft)
12/12/2011 21:30 6,8 C 86 % 1015,3 hPa 0,0 mm 13,0 km/h (3 Bft) S-SO 202 0 min 0 W/m 4,6 C 4,3 C 19,4 km/h (3 Bft)
12/12/2011 21:35 6,8 C 86 % 1015,1 hPa 0,0 mm 12,6 km/h (3 Bft) S-SO 202 0 min 0 W/m 4,6 C 4,3 C 16,6 km/h (3 Bft)
12/12/2011 21:40 6,9 C 86 % 1015,2 hPa 0,0 mm 11,2 km/h (2 Bft) S 180 0 min 0 W/m 4,7 C 4,7 C 22,3 km/h (4 Bft)
12/12/2011 21:45 6,9 C 86 % 1015,3 hPa 0,0 mm 5,8 km/h (2 Bft) SO 225 0 min 0 W/m 4,7 C 6,0 C 11,2 km/h (2 Bft)
12/12/2011 21:50 6,9 C 86 % 1015,4 hPa 0,0 mm 11,5 km/h (2 Bft) S-SO 202 0 min 0 W/m 4,7 C 4,6 C 16,2 km/h (3 Bft)
12/12/2011 21:55 7,1 C 86 % 1015,6 hPa 0,0 mm 16,9 km/h (3 Bft) S-SO 202 0 min 0 W/m 4,9 C 4,1 C 23,8 km/h (4 Bft)
12/12/2011 22:00 7,1 C 85 % 1015,2 hPa 0,0 mm 12,6 km/h (3 Bft) S-SE 157 0 min 0 W/m 4,8 C 4,7 C 14,0 km/h (3 Bft)
12/12/2011 22:05 7,2 C 85 % 1015,2 hPa 0,0 mm 11,5 km/h (2 Bft) S-SO 202 0 min 0 W/m 4,9 C 5,0 C 18,7 km/h (3 Bft)
12/12/2011 22:10 7,3 C 85 % 1015,3 hPa 0,0 mm 10,8 km/h (2 Bft) S-SO 202 0 min 0 W/m 4,9 C 5,3 C 17,6 km/h (3 Bft)
12/12/2011 22:15 7,3 C 85 % 1015,3 hPa 0,0 mm 13,0 km/h (3 Bft) S-SO 202 0 min 0 W/m 4,9 C 4,9 C 16,6 km/h (3 Bft)
12/12/2011 22:20 7,3 C 85 % 1015,3 hPa 0,0 mm 16,2 km/h (3 Bft) S-SO 202 0 min 0 W/m 4,9 C 4,4 C 23,4 km/h (4 Bft)
12/12/2011 22:25 7,3 C 85 % 1015,1 hPa 0,0 mm 7,2 km/h (2 Bft) S 180 0 min 0 W/m 4,9 C 6,0 C 10,4 km/h (2 Bft)
12/12/2011 22:30 7,3 C 85 % 1015,1 hPa 0,0 mm 10,1 km/h (2 Bft) S 180 0 min 0 W/m 4,9 C 5,4 C 15,1 km/h (3 Bft)
12/12/2011 22:35 7,3 C 85 % 1015,0 hPa 0,0 mm 16,2 km/h (3 Bft) S-SO 202 0 min 0 W/m 4,9 C 4,4 C 22,0 km/h (4 Bft)
_ Min-Heure 08:50 14:10 01:45 - 11:55 - - - - 08:50 09:10 10:20
Minimum _ 4,3 C 68 % 1008,0 hPa - 0,0 km/h (0 Bft) - - - - 3,4 C 3,4 C 0,0 km/h (0 Bft)
_ Max-Heure 13:15 09:50 13:55 02:35 21:55 - - 22:35 22:35 00:30 13:15 05:55
Maximum _ 10,9 C 95 % 1018,7 hPa 0,7 mm 16,9 km/h
S-SO (3 Bft)
- - 0 min 0 W/m 9,0 C 10,9 C 26,6 km/h
N-NO (4 Bft)
Moyenne _ 7,9 C 86 % 1014,4 hPa #6,1 mm 5,4 km/h (2 Bft) SO - #0 min. 0 W/m 5,7 C 7,3 C 8,8 km/h (2 Bft)
Saint Bonnet de Bellac- Haute Vienne - France